Weather History for Mattoon, IL

Change the Weather History Date:

Thursday, November 29, 2012

  Actual Average Record
Temperature  
Mean Temperature 40 °F 37 °F  
Max Temperature 49 °F 45 °F 68 °F (1998)
Min Temperature 31 °F 30 °F 5 °F (1958)
Degree Days  
Heating Degree Days 25 28  
Month to date heating degree days 672 626  
Since 1 July heating degree days 1149 1030  
Cooling Degree Days 0 0  
Month to date cooling degree days 0 0  
Year to date cooling degree days 1382 1057  
Moisture  
Dew Point 29 °F    
Average Humidity 66    
Maximum Humidity 85    
Minimum Humidity 46    
Precipitation  
Precipitation 0.00 in 0.11 in 1.12 in (2011)
Month to date precipitation 1.27 3.37  
Year to date precipitation 30.64 35.17  
Sea Level Pressure  
Sea Level Pressure 30.23 in    
Wind  
Wind Speed 11 mph (South)    
Max Wind Speed 17 mph    
Max Gust Speed 25 mph    
Visibility 10 miles    
Events      
T = Trace of Precipitation, MM = Missing Value Source: NWS Daily Summary

Daily Weather History Graph

Daily Weather History Graph

Search for Another Location

Airport:

Trip Planner

Search our weather history database for the weather conditions in past years. The results will help you decide how hot, cold, wet, or windy it might be!

Date:

Astronomy

Nov. 29, 2012 Rise Set
Actual Time 6:52 AM CST 4:30 PM CST
Civil Twilight 6:23 AM CST 4:59 PM CST
Nautical Twilight 5:49 AM CST 5:33 PM CST
Astronomical Twilight 5:17 AM CST 6:05 PM CST
Moon 5:33 PM CST (11/29) 7:39 AM CST (11/29)
Length of Visible Light 10h 36m
Length of Day
9h 37m
Full, 99% of the Moon is Illuminated
Nov 29
Full
Dec 6
Last Quarter
Dec 13
New
Dec 19
First Quarter
Dec 28
Full

Hourly Weather History & Observations

Time (CST) Temp. Windchill Dew Point Humidity Pressure Visibility Wind Dir Wind Speed Gust Speed Precip Events Conditions
12:53 AM 33.1 °F 26.1 °F 25.0 °F 72% 30.34 in 10.0 mi South 8.1 mph - N/A   Clear
1:53 AM 34.0 °F 26.0 °F 25.0 °F 70% 30.33 in 10.0 mi South 10.4 mph - N/A   Clear
2:53 AM 33.1 °F 27.7 °F 25.0 °F 72% 30.34 in 10.0 mi South 5.8 mph - N/A   Clear
3:53 AM 32.0 °F 26.4 °F 25.0 °F 75% 30.32 in 10.0 mi South 5.8 mph - N/A   Clear
4:53 AM 32.0 °F 25.6 °F 25.0 °F 75% 30.32 in 10.0 mi South 6.9 mph - N/A   Clear
5:53 AM 30.9 °F 23.5 °F 26.1 °F 82% 30.32 in 10.0 mi South 8.1 mph - N/A   Clear
6:53 AM 30.9 °F 23.5 °F 27.0 °F 85% 30.33 in 8.0 mi SSE 8.1 mph - N/A   Clear
7:53 AM 33.1 °F 25.5 °F 27.0 °F 78% 30.32 in 9.0 mi South 9.2 mph - N/A   Clear
8:53 AM 37.0 °F 29.8 °F 28.9 °F 73% 30.31 in 10.0 mi South 10.4 mph - N/A   Clear
9:53 AM 41.0 °F 33.1 °F 30.0 °F 65% 30.29 in 10.0 mi South 15.0 mph 20.7 mph N/A   Clear
10:53 AM 46.0 °F 41.0 °F 30.9 °F 56% 30.26 in 10.0 mi South 10.4 mph - N/A   Clear
11:53 AM 46.9 °F - 30.9 °F 54% 30.24 in 10.0 mi South 12.7 mph - N/A   Clear
12:53 PM 48.9 °F - 32.0 °F 52% 30.21 in 10.0 mi South 15.0 mph 21.9 mph N/A   Clear
1:53 PM 48.9 °F - 30.9 °F 50% 30.18 in 10.0 mi South 15.0 mph 25.3 mph N/A   Clear
2:53 PM 48.9 °F - 28.9 °F 46% 30.17 in 10.0 mi South 11.5 mph 19.6 mph N/A   Clear
3:53 PM 48.0 °F - 30.9 °F 52% 30.15 in 10.0 mi SSE 10.4 mph - N/A   Clear
4:53 PM 46.9 °F - 32.0 °F 56% 30.15 in 10.0 mi South 12.7 mph - N/A   Clear
5:53 PM 46.0 °F 39.6 °F 32.0 °F 58% 30.14 in 10.0 mi South 15.0 mph - N/A   Clear
6:53 PM 45.0 °F 38.5 °F 32.0 °F 60% 30.13 in 10.0 mi South 13.8 mph - N/A   Clear
7:53 PM 46.0 °F 39.6 °F 32.0 °F 58% 30.13 in 10.0 mi South 15.0 mph - N/A   Clear
8:53 PM 46.0 °F 39.6 °F 30.0 °F 54% 30.13 in 10.0 mi South 15.0 mph 20.7 mph N/A   Clear
9:53 PM 45.0 °F 38.5 °F 30.0 °F 56% 30.12 in 10.0 mi South 13.8 mph 21.9 mph N/A   Clear
10:53 PM 45.0 °F 40.1 °F 30.0 °F 56% 30.14 in 10.0 mi South 9.2 mph - N/A   Clear
11:53 PM 43.0 °F 37.7 °F 30.9 °F 62% 30.14 in 10.0 mi South 9.2 mph - N/A   Clear